Погода в Алексеевке

Погода в Алексеевке : погода сейчас, прогноз погоды и архив. Всё, что Вы хотите узнать о погоде в Алексеевке!

Поиск расширенной информации на нашем сайте:

Другие новости

Новости СМИ2

Главная страница сайта

Новости сайта

03.07.2017

Напоминаем, что на нашем специализированном сайте Метеоцентр.Азия вы можете получить высокодетализированные автоматические прогнозы погоды по пунктам России, СНГ и мира в авиационном формате (включающие направление и скорость ветра, видимость, явления погоды, количество и форму облачности, нижнюю и верхнюю границу облачности).

Рекомендуем: Skf подшипник 6308 www.vekko-podshipnik.ru.

Погода в Алексеевке - сегодня

Время (UTC), дата Ветер
(°,м/с) 
Видим.   Явления Облачность Т
(°С)
Тd
(°С)
f(%) Тe
(°С)
Pmin
(гПа)
dP
(гПа)
Po
(мм)
O2
(г/м3)
Тmin Tmax R s Состояние
почвы
06 15.08.17 040 (СВ) 20000 м    6/6 1000 м 
[Cu hum]
+20.6 +4.3 34 +21  1020.1  732  274  +5.5         
09 15.08.17 060 (СВ) 20000 м    8/8 1000 м 
[Cu med, cong]
+22.2 +1.9 26 +22  1019.4  -0.4  732  272           
12 15.08.17 070 (В) 20000 м    3/3 1000 м 
[Cu med, cong]
+22.2 +3.9 30 +22  1019  -0.4  731  272           
15 15.08.17 070 (В) 20000 м    ясно 
+18.2 +5.7 44 +20  1020.1  0.5  732  275    +22.6       
18 15.08.17 тихо ()   н/о    ясно 
+9.1 +5.9 80 +9  1022.1  0.5  732  284    +22.6       
21 15.08.17 тихо ()   н/о    ясно 
+6.3 +4.2 86 +6  1022.4  -0.2  732  288           
00 16.08.17 тихо ()   20000 м    ясно 
+4.3 +2.6 89 +4  1023.1  0.3  732  290           
03 16.08.17 360 (С) 20000 м    ясно 
+14.1 +6.5 60 +15  1021.9  0.5  733  280           
06 16.08.17 080 (В) 20000 м    ясно 
+19.8 +4.1 35 +21  1021  733  275  +4.2         
09 16.08.17 050 (СВ) 20000 м    ясно 
+22.5 +3.2 28 +23  1019.6  -1  732  272           
12 16.08.17 040 (СВ) 20000 м    ясно 
+23 +2.8 27 +23  1019.1  -0.4  731  271           
15 16.08.17 тихо ()   20000 м    ясно 
+19 +8.5 51 +19  1020.4  0.7  732  274    +24.1       
18 16.08.17 тихо ()   н/о    ясно 
+8.4 +5.8 84 +8  1022  -0.1  732  285    +24.1       
21 16.08.17 тихо ()   н/о    ясно 
+6.3 +4.2 86 +6  1022.1  -0.3  732  287           
00 17.08.17 тихо ()   20000 м    3/0 средняя 
[Ac trans]
+5.3 +3.4 88 +5  1022.5  0.2  732  289           
03 17.08.17 тихо ()   20000 м    8/0 средняя 
[Ac As]
+14.9 +6.1 56 +15  1020.9  0.1  732  279           
06 17.08.17 340 (С) 20000 м    8/0 средняя 
[Ac cast]
+22.2 +5.1 33 +22  1019.6  -0.2  732  272  +5.1         
09 17.08.17 030 (СВ) 20000 м    6/3 1000 м средняя 
[Cu hum|Ac lent]
+25 +6.9 31 +25  1018  -1.1  731  269           
12 17.08.17 030 (СВ) 20000 м    8/8 1000 м средняя 
[Sc|Ac cast]
+25.3 +8.2 34 +25  1017  -0.9  730  268           
15 17.08.17 350 (С) 20000 м    9/9 600 м 
[Sc]
+18 +13.1 73 +25  1019.7  1.6  731  274    +26.1       
18 17.08.17 тихо ()   н/о    ясно 
+14.8 +11.5 81 +19  1020.2  -0.1  731  277    +26.1       
21 17.08.17 350 (С) н/о    ясно 
+10.1 +7.6 84 +11  1020.9  -0.1  731  283           
00 18.08.17 350 (С) 20000 м    8/4 600 м средняя 
[Sc|Ac cast]
+12.3 +10.2 87 +16  1020.9  0.4  732  280           
03 18.08.17 340 (С) 20000 м    10/8 600 м средняя 
[Sc|Ac lent]
+15.1 +10 72 +18  1021.4  0.9  732  278           
06 18.08.17 050 (СВ) 20000 м    6/4 1000 м средняя 
[Cu med, cong|Ac As]
+19.8 +7.4 45 +21  1020.9  0.2  732  274  +10         
Время (UTC), дата Ветер
(°,м/с) 
Видим.   Явления Облачность Т
(°С)
Тd
(°С)
f(%) Тe
(°С)
Pmin
(гПа)
dP
(гПа)
Po
(мм)
O2
(г/м3)
Тmin Tmax R s Состояние
почвы

Для получения пояснительной информации подведите курсор к названию столбца.

ПОГОДА в Алексеевке - архив

Всё, что Вы хотите узнать о погоде в Алексеевке - удобно и подробно!

Выберите нужную дату (начиная с 1 января 2015* года) и нажмите кнопку "Найти".
Будут отображены архивные сводки погоды по пункту Алексеевка, начиная с указанной даты.


Отображать данные в формате CSV (для использования в таблицах Excel)


Внимание! Наш архив погоды предназначен исключительно для личного некоммерческого использования в познавательных целях. Если Вам необходимы официальные справки о состоянии погоды (для производственных, юридических, коммерческих и т.п. целей), обращайтесь в органы Росгидромета.

*Примечание: данная дата относится к архиву по метеостанциям СССР (Россия, СНГ, Балтия).
Архив по метеостанциям Зарубежной Европы и Азии (кроме Китая) хранится 10 дней, по другим регионам земного шара (Китай, Африка, Америка, Австралия, Океания) - 1 день.

Алексеевка - район местоположения метеостанции


Название, широта, долгота, высота метеостанции:
Алексеевка 52°ш. 70.9°д. 384 м над ур. моря [Казахстан]

Дополнительная информация

В oтличие oт бoльшинства пoгoдных сайтoв мы публикуем пoдрoбную метеoинфoрмацию в детальнoм прoфессиoнальнoм фoрмате.

Характеристики температуры и влажнoсти вoздуха измеряются на высoте 2 м в тени вдали oт зданий и деревьев.
Скoрoсть ветра измеряется на высoте 10 м (на урoвне рoста челoвека скoрoсть ветра ниже в 1.5-2 раза). Если метеoстанция нахoдится в гoрoде или в лесу, тo скoрoсть ветра занижена на 2-4 м/с пo сравнению с oткрытым местoм. Скoрoсть ветра над акватoриями крупных рек и oзёр, а также на вершинах хoлмoв на 2-5 м/с выше, чем в oбычных услoвиях.
Атмoсфернoе давление в разных тoчках местнoсти мoжет значительнo oтличаться oт давления на метеoстанции, в зависимoсти oт услoвий рельефа (при пoдъёме на 10 м давление пoнижается примернo на 1 мм рт.ст.).